User: anonymous   Login
Location: Caltech
(34.1382°N, 118.1253°W)
Time: 03:09:38
(UTC-07:00)
Language:

Cosmos-2242 - Orbit

View from above orbital plane
View from above orbital plane
View from above satellite
View from above satellite

Ground track
Ground track

The orbit data is extracted from the following two-line orbital elements,

1 22626U 93024A   15209.93840662  .00000460  00000-0  48451-4 0  9997
2 22626 082.5243 331.3411 0017940 245.9596 113.9744 14.87057970203698
Epoch (UTC): 28 July 2015 22:31:18
Eccentricity: 0.0017940
inclination: 82.5243°
perigee height: 594 km
apogee height: 619 km
right ascension of ascending node: 331.3411°
argument of perigee: 245.9596°
revolutions per day: 14.87057970
mean anomaly at epoch: 113.9744°
orbit number at epoch: 20369

The dashed part of the orbit path shows where the satellite is in the earth's shadow,  

DLR